Tracking 22130 objects as of 21-Jan-2021
HD Live streaming from Space Station
objects crossing your sky now

GALAXY 25 (TELSTAR 5)

Track GALAXY 25 (TELSTAR 5) now!
GALAXY 25 (TELSTAR 5) is classified as:


NORAD ID: 24812
Int'l Code: 1997-026A
Perigee: 35,781.3 km
Apogee: 35,804.9 km
Inclination: 2.4 °
Period: 1,436.1 minutes
Semi major axis: 42164 km
RCS: 43.2964 m2 (large)
Launch date: May 24, 1997
Source: United States (US)
Launch site: TYURATAM MISSILE AND SPACE COMPLEX (TTMTR)

24 C-band, 28 Ku-band; U.S., southern Canada, Mexico, Caribbean.
aabbcc
Your satellite tracking list
Your tracking list is empty




NASA's NSSDC Master Catalog

Two Line Element Set (TLE):
1 24812U 97026A   21020.86576458  .00000161  00000-0  00000-0 0  9993
2 24812   2.4401  88.5765 0002804 204.1965 172.2082  1.00274146 86595
Source of the keplerian elements: AFSPC